Location: Brede
(50.9167°N, 0.6000°E)
Time: 09:04:05
(UTC+00:00)

Tiros 1 - Pass Details

Date: 28 November 2020
Orbit: 630 x 663 km, 48.4° (Epoch: 16 January)

Event Time Altitude Azimuth Distance (km) Brightness Sun altitude
Rises 19:49:09 0° 277° (W) 2,987 11.6 -35.8°
Reaches altitude 10° 19:51:34 10° 272° (W) 2,069 10.5 -36.2°
Enters shadow 19:53:02 19° 265° (W) 1,548 9.6 -36.4°
